[[{"header":{"parameterUnit":"m.s-1","parameterCategory":1,"la1":30.2992,"la2":30.254,"lo1":-89.0895,"lo2":-89.0443,"dy":0.0025,"dx":0.0025,"nx":19,"ny":19,"refTime":"2026-05-06T09:00:00:Z","depth":0,"parameterNumber":2,"parameterNumberName":"U-component_of_WINDS"},"data":[0,0,0,4.7768,4.7773,4.8011,4.8012,4.8323,4.8325,0,0,0,0,0,0,0,0,0,0,0,4.77,4.7703,4.7768,4.7774,4.8011,4.8012,4.8322,4.8325,0,0,0,0,0,0,0,0,0,0,0,4.7699,4.7702,4.7705,4.7775,4.8011,4.8012,4.8321,4.814,0,0,0,0,0,0,0,0,0,0,4.7908,4.7848,4.7701,4.7705,4.7776,4.8011,4.8013,4.8131,4.8152,4.8217,0,4.8275,0,4.8305,4.8346,4.8348,0,0,0,4.7773,4.7831,4.7893,4.7705,4.7778,4.8011,4.7904,4.8143,4.8165,4.8244,4.8279,4.8291,4.831,4.8348,4.835,4.8728,4.8729,0,0,4.776,4.7745,4.7877,4.7907,4.787,4.7896,4.7911,4.8156,4.8195,4.828,4.8298,4.8315,4.8351,4.8353,4.8726,4.8728,0,0,0,4.7723,4.7736,4.7791,4.7895,4.7937,4.7903,4.792,4.8184,4.8203,4.8301,4.8319,4.8352,4.8356,4.8724,4.8727,4.8801,0,0,0,4.7715,4.7714,4.7786,4.7779,4.7933,4.8063,4.7942,4.8186,4.8214,4.8317,4.8352,4.8359,4.8722,4.8726,4.8795,4.8839,0,0,0,4.7684,4.7711,4.7746,4.7778,4.7879,4.8059,4.8093,4.8192,4.8225,4.8348,4.836,4.8721,4.8725,4.8789,4.883,4.8934,0,0,0,4.7648,4.7811,4.7747,4.7935,4.7877,4.8103,4.8091,4.8261,4.8375,4.8354,4.8722,4.8727,4.8788,4.8825,4.8927,4.9017,4.9053,0,0,4.7845,4.7834,4.7946,4.7896,4.8129,4.8068,4.8313,4.8433,4.8459,4.8637,4.8647,4.8797,4.883,4.8932,4.9262,4.9291,0,0,0,4.8004,4.8084,4.8149,4.8256,4.8349,4.8433,4.8516,4.8561,4.8712,4.8547,4.8863,4.8883,4.8944,4.8988,4.9012,4.9065,4.8746,4.8746,4.8745,4.8262,4.8285,4.8472,4.8523,4.8627,4.871,4.8796,4.887,4.8865,4.8939,4.8992,4.9189,4.9239,4.9258,4.9312,4.9041,4.9042,4.9042,4.9042,4.8553,4.867,4.8656,4.8832,4.8855,4.9004,4.909,4.9081,4.9223,4.9151,4.9206,4.9124,4.9288,4.9337,4.9048,4.9047,4.9046,4.9046,4.9045,4.8725,4.8784,4.8834,4.8989,4.9107,4.9154,4.929,4.9307,4.9325,4.9379,4.9436,4.9434,4.9435,4.9405,4.9405,4.9406,4.9407,4.9407,4.9407,4.8883,4.8936,4.9048,4.916,4.9229,4.9324,4.9408,4.9478,4.956,4.9562,4.9562,4.9549,4.93,4.9236,4.9418,4.9416,4.9415,4.9414,4.9413,4.9168,4.9105,4.9278,4.9348,4.948,4.9595,4.9615,4.9756,4.9816,4.9883,4.9857,4.967,4.9661,4.9642,4.9589,4.9852,4.9852,4.9852,4.9852,4.9312,4.9308,4.9488,4.9598,4.9708,4.9743,4.9938,5.0005,5.0065,5.0103,5.0068,5.0,4.998,4.9982,4.9956,4.9907,5.0245,5.0245,5.0245,4.9488,4.9495,4.9658,4.9713,4.9817,4.9906,5.009,5.0218,5.0273,5.0262,5.0134,5.0117,5.0008,4.9971,4.9956,4.9915,4.9826,0,0]},{"header":{"parameterUnit":"m.s-1","parameterCategory":1,"la1":30.2992,"la2":30.254,"lo1":-89.0895,"lo2":-89.0443,"dy":0.0025,"dx":0.0025,"nx":19,"ny":19,"refTime":"2026-05-06T09:00:00:Z","depth":0,"parameterNumber":3,"parameterNumberName":"V-component_of_WINDS"},"data":[0,0,0,2.4883,2.4888,2.5094,2.5095,2.5355,2.5357,0,0,0,0,0,0,0,0,0,0,0,2.482,2.4822,2.4883,2.4888,2.5094,2.5095,2.5354,2.5357,0,0,0,0,0,0,0,0,0,0,0,2.482,2.4822,2.4824,2.4889,2.5094,2.5095,2.5354,2.52,0,0,0,0,0,0,0,0,0,0,2.5,2.494,2.4821,2.4824,2.489,2.5093,2.5095,2.5192,2.5209,2.526,0,2.5304,0,2.5335,2.5374,2.5375,0,0,0,2.489,2.4926,2.4983,2.4824,2.4892,2.5093,2.5001,2.5202,2.5221,2.5282,2.5308,2.5318,2.5339,2.5376,2.5377,2.5661,2.5663,0,0,2.4879,2.4857,2.497,2.4995,2.4963,2.4995,2.5008,2.5214,2.524,2.5309,2.5324,2.5343,2.5378,2.538,2.566,2.5662,0,0,0,2.4845,2.4849,2.4901,2.4985,2.5022,2.5001,2.5016,2.5231,2.525,2.5327,2.5346,2.5379,2.5382,2.5659,2.5661,2.57,0,0,0,2.4838,2.4829,2.4896,2.4884,2.5018,2.5129,2.5029,2.5236,2.526,2.5345,2.5379,2.5385,2.5658,2.566,2.5696,2.5724,0,0,0,2.4808,2.4825,2.4854,2.4883,2.497,2.5126,2.5157,2.5241,2.5272,2.5375,2.5385,2.5657,2.5659,2.5693,2.5718,2.5792,0,0,0,2.4769,2.4888,2.4855,2.4994,2.4969,2.5149,2.5156,2.5292,2.5385,2.538,2.5658,2.5661,2.5692,2.5714,2.5787,2.585,2.5874,0,0,2.4907,2.4904,2.4988,2.4964,2.5144,2.5119,2.5306,2.5413,2.5444,2.5587,2.5594,2.5698,2.5717,2.5791,2.6013,2.6032,0,0,0,2.5024,2.5084,2.5137,2.5224,2.5307,2.5381,2.5462,2.5501,2.5624,2.5513,2.5745,2.5757,2.5801,2.5832,2.5848,2.5887,2.5674,2.5673,2.5673,2.5189,2.5219,2.536,2.5415,2.5499,2.558,2.5651,2.5718,2.5726,2.578,2.5823,2.5954,2.599,2.6002,2.6042,2.5858,2.5858,2.5858,2.5858,2.5393,2.5483,2.5488,2.5626,2.5657,2.5774,2.5855,2.5856,2.5969,2.5925,2.5965,2.5915,2.6021,2.6058,2.5862,2.5861,2.5861,2.5861,2.586,2.5505,2.5553,2.5598,2.5725,2.5821,2.5872,2.5979,2.6005,2.6029,2.6069,2.6117,2.6116,2.6119,2.609,2.609,2.6091,2.6091,2.6091,2.6092,2.5604,2.5652,2.574,2.5836,2.5894,2.5974,2.6054,2.6113,2.6184,2.6193,2.6194,2.6196,2.6026,2.5982,2.6099,2.6098,2.6097,2.6096,2.6095,2.5801,2.576,2.5894,2.5953,2.6067,2.6159,2.6188,2.6304,2.6356,2.6408,2.6401,2.627,2.627,2.6257,2.6222,2.6393,2.6393,2.6393,2.6394,2.5896,2.5896,2.6039,2.613,2.6222,2.6262,2.6412,2.6475,2.6533,2.6567,2.6546,2.65,2.6486,2.6494,2.6477,2.6444,2.6668,2.6668,2.6669,2.6018,2.6029,2.6153,2.6208,2.6299,2.6376,2.6518,2.6623,2.668,2.668,2.6594,2.6582,2.651,2.6484,2.6484,2.6456,2.6397,0,0]}]]